Tracking 27112 objects as of 26-Mar-2023
HD Live streaming from Space Station
objects crossing your sky now

OPS 5805

Track OPS 5805 now!
OPS 5805 is classified as:


NORAD ID: 12093
Int'l Code: 1980-100A
Perigee: 1,702.9 km
Apogee: 38,666.0 km
Inclination: 64.1 °
Period: 717.8 minutes
Semi major axis: 26555 km
RCS: Unknown
Launch date: December 13, 1980
Source: United States (US)
Launch site: AIR FORCE WESTERN TEST RANGE (AFWTR)
Your satellite tracking list
Your tracking list is empty




NASA's NSSDC Master Catalog

Two Line Element Set (TLE):
1 12093U 80100A   23081.00483633 -.00000730  00000-0  00000-0 0  9996
2 12093  64.1117 321.4505 6959607 275.4417  15.4049  2.00618877 28427
Source of the keplerian elements: AFSPC